Hourly Weather Roundup
Issued by NWS Central Illinois

Home | Current Version | Previous Version | Text Only | Print | Product List | Glossary On
Versions: 1 2 3 4 5 6 7 8 9 10 11 12 13 14 15 16 17 18 19 20 21 22 23 24 25 26 27 28 29 30 31 32 33 34 35 36 37 38 39 40 41 42 43 44 45 46 47 48 49 50
000
NZUS43 KILX 230010
HWRILX

Area Weather Roundup
National Weather Service Lincoln IL
600 PM CST THU FEB 22 2018

NOTE:  "FAIR" indicates few or no clouds below 12,000 feet, with
       no sigificant weather and/or obstructions to visibility.


CITY           SKY/WX    TMP DP  RH WIND       PRES   REMARKS
Bloomington    LGT RAIN  42  41  96 SE9       30.36F VSB 1
6HR MIN TEMP:  40; 6HR MAX TEMP:  43; 6HR PCP: TRACE;

Champaign      CLOUDY    42  42 100 SE3       30.38R FOG
6HR MIN TEMP:  42; 6HR MAX TEMP:  44;

Danville       CLOUDY    43  41  92 SE7       30.36R
6HR MIN TEMP:  41; 6HR MAX TEMP:  44;

Decatur        CLOUDY    43  42  97 E7        30.33F FOG
6HR MIN TEMP:  42; 6HR MAX TEMP:  44;

Effingham      CLOUDY    46  46 100 CALM      30.36F FOG
6HR MIN TEMP:  44; 6HR MAX TEMP:  46;

Flora          CLOUDY    48  47  97 CALM      30.36S FOG
6HR MIN TEMP:  46; 6HR MAX TEMP:  49;

Galesburg      CLOUDY    38  38 100 E7        30.30F FOG     WCI  33
6HR MIN TEMP:  37; 6HR MAX TEMP:  38;

Jacksonville   CLOUDY    41  40  98 E7        30.30F FOG
6HR MIN TEMP:  35; 6HR MAX TEMP:  41; 6HR PCP:  0.04;

Lacon          CLOUDY    41  41 100 E8        30.35F FOG
6HR MIN TEMP:  38; 6HR MAX TEMP:  42;

Lawrenceville  CLOUDY    47  46  97 CALM      30.38R FOG
6HR MIN TEMP:  47; 6HR MAX TEMP:  48;

Litchfield     CLOUDY    43  43 100 CALM      30.31S FOG
6HR MIN TEMP:  42; 6HR MAX TEMP:  44;

$$


CITY           SKY/WX    TMP DP  RH WIND       PRES   REMARKS
Lincoln        CLOUDY    43  43 100 E6        30.34F FOG
6HR MIN TEMP:  42; 6HR MAX TEMP:  44;

Macomb         FOG       36  36 100 E8        30.32F VSB 1/4 WCI  30
6HR MIN TEMP:  35; 6HR MAX TEMP:  38;

Mattoon        CLOUDY    43  42  97 SE5       30.35R FOG
6HR MIN TEMP:  43; 6HR MAX TEMP:  45;

Mt Carmel AP   FOG       47  46  98 CALM      30.37R VSB 1
6HR MIN TEMP:  46; 6HR MAX TEMP:  47;

Olney-Noble AP LGT RAIN  46  45  93 CALM      30.36S VSB 1
Paris AP       CLOUDY    43  42  97 CALM      30.39R
6HR MIN TEMP:  41; 6HR MAX TEMP:  44;

Peoria         FOG       42  41  96 E7        30.33F VSB 1/2
6HR MIN TEMP:  39; 6HR MAX TEMP:  43;

Pontiac        CLOUDY    42  42  98 E9        30.38F FOG
6HR MIN TEMP:  40; 6HR MAX TEMP:  44;

Rantoul        DRIZZLE   44  44  99 S6        30.39R
6HR MIN TEMP:  43; 6HR MAX TEMP:  46;

Robinson       CLOUDY    45  45 100 CALM      30.38R FOG
6HR MIN TEMP:  44; 6HR MAX TEMP:  46;

Springfield    CLOUDY    44  42  93 E7        30.31F FOG
6HR MIN TEMP:  44; 6HR MAX TEMP:  45;

Taylorville    CLOUDY    43  43 100 E5        30.31F FOG
6HR MIN TEMP:  41; 6HR MAX TEMP:  44;

$$

...REGIONAL REPORTS...


CITY           SKY/WX    TMP DP  RH WIND       PRES   REMARKS
Chicago O`Hare CLOUDY    38  28  67 NE10      30.41S WCI  31
Kankakee       CLOUDY    43  38  82 E9        30.39R
Moline         FOG       38  37  97 E10       30.30F VSB 3/4 WCI  31
Mount Sterling FOG       37  36  99 E7        30.27F VSB 1/2 WCI  31
Mount Vernon   CLOUDY    47  45  93 E3        30.32F
Pittsfield     FOG       37  37  99 E3        30.31F VSB 3/4
Quincy         FOG       36  35  96 E8        30.26F VSB 1   WCI  30
Rockford       CLOUDY    35  28  75 E9        30.41F WCI  28
$$


CITY           SKY/WX    TMP DP  RH WIND       PRES   REMARKS
Burlington     CLOUDY    37  36  96 E9        30.27F FOG     WCI  30
Cedar Rapids   DRIZZLE   33  32  96 E13       30.28F WCI  24
Des Moines     FRZ RAIN  32  30  92 E12       30.23F VSB 1   WCI  23
Kirksville     FOG       33  33 100 E9        30.24S VSB 1/2 WCI  25
Ottumwa        CLOUDY    34  32  92 E7        30.26F FOG     WCI  28
St Louis       CLOUDY    43  42  97 CALM      30.31F FOG
$$


CITY           SKY/WX    TMP DP  RH WIND       PRES   REMARKS
Terre Haute    CLOUDY    45  42  89 SE3       30.37R
Evansville     CLOUDY    51  49  92 N3        30.35R
Indianapolis   CLOUDY    44  41  89 E9        30.36S
Lafayette      CLOUDY    44  41  89 E13       30.35S
Madison        FLURRIES  33  25  72 E14       30.42F WCI  23
Milwaukee      CLOUDY    35  29  78 NE14      30.46S WCI  26
$$






USA.gov is the U.S. government's official web portal to all federal, state and local government web resources and services.